COSMOS 1275 DEB, 12746

Orbit data source: Space-Track

COSMOS 1275 DEB, 12746 is space debris in LEO originally from a launch on Thu, 04 Jun 1981 UTC launched from the Plesetsk Missile And Space Complex (PKMTR). Debris objects in space refer to the collection of defunct objects orbiting the Earth. Examples of debris include non-operational satellites, rocket bodies, and fragments generated from explosions, collisions, or faulty payload assembly.

Loading next visibility...
Identifier
12746, 1981-053CP
Orbit
LEO
Country
Flag of CISCIS
Related business
Manufacturer
Unknown
Mission
Spacecraft
Bus & Motor
Unknown
Mass
Unknown
Launch date (UTC)
1981-06-04 (45 years ago)
Launch vehicle
Unknown
Launch site
Plesetsk Missile And Space Complex (PKMTR)
Object type
Payload
Rocket body
Debris
Shape & HBR
Unknown shape, 0.2 m
Radar Cross Section
Small (<0.1 m²)

Expand to show TLE details & history
Last TLE update: 9 hours ago

TLE from 9 hours ago
0 COSMOS 1275 DEB
1 12746U 81053CP  26119.57153005  .00002834  00000-0  10742-2 0  9995
2 12746  82.9378 192.5335 0037659  60.1768 300.3154 14.30464237280117
Epoch: 2026-04-29T13:43Z
TLE epoch observation values (Epoch: 2026-04-29T13:43:00.196Z)
Latitude
-0.00003°
Longitude
129.2521°
Altitude
779.604 km
Speed
7.471 km/s
True Right ascension
12h 50m 08s
True Declination
0° 00' 00"
Sunlit
Object was in full shadow at epoch
Visualization orbit readout
Latitude
Unknown
Longitude
Unknown
Altitude
Unknown
Speed
Unknown
Apparent Right ascension
Unknown
Apparent Declination
Unknown
Sunlit
N/A
Visualization observer readout
Local Sidereal Time
05:44:33
Azimuth
Unknown
Elevation
Unknown
Doppler factor
Unknown
Orbital elements
Apogee altitude
814.236 km
Perigee altitude
760.268 km
Semi-major axis
7,165.389 km
Eccentricity
0.00377
Inclination
82.9378°
RAAN
192.5335°
Arg. of periapsis
60.1768°
True anomaly
299.94198°
Mean anomaly
300.3154°
Eccentric anomaly
300.12878°
Mean motion
3.57836 °/min
Orbital period
100.6 mins
BSTAR
0.0010742
Loading maneuver chart data...
Computing Atmospheric mass density...
Loading historical data...
Loading historical data...
Loading historical data...
Loading historical data...
Loading historical data...
Loading historical data...
Loading historical data...

Documentation

Showing up to 5 results
|